MEA306 OLBA-HECA

Flight info

Callsign MEA306
Flight time 1h 3m
Altitude 34000
Route KAD UG2 ELIKA N159 VELOX N71 LAKTO N307 MELDO A16 CVO
Aircraft A320/M-SDE3FGHIRWY/LB1

Departure

Time 2026-05-08 14:34
Airport Beirut Rafic Hariri International Airport (OLBA)

Arrival

Time 2026-05-08 15:38
Airport Cairo International Airport (HECA)
Time Latitude Longitude Altitude Speed Heading
2026-05-08 14:14 33.82264 35.49374 13 ft 0 kts 16°
2026-05-08 14:26 33.82263 35.49374 11 ft 1 kts 16°
2026-05-08 14:27 33.82239 35.49366 14 ft 4 kts 16°
2026-05-08 14:27 33.82213 35.49357 17 ft 4 kts 16°
2026-05-08 14:27 33.82192 35.49348 17 ft 4 kts 37°
2026-05-08 14:27 33.82182 35.49327 16 ft 4 kts 103°
2026-05-08 14:28 33.82189 35.49302 14 ft 0 kts 105°
2026-05-08 14:28 33.82189 35.49301 14 ft 0 kts 105°
2026-05-08 14:30 33.82187 35.49310 11 ft 2 kts 105°
2026-05-08 14:30 33.82181 35.49337 14 ft 5 kts 105°
2026-05-08 14:30 33.82167 35.49382 13 ft 7 kts 112°
2026-05-08 14:31 33.82144 35.49442 15 ft 9 kts 116°
2026-05-08 14:31 33.82109 35.49514 14 ft 10 kts 144°
2026-05-08 14:31 33.82041 35.49485 15 ft 12 kts 214°
2026-05-08 14:32 33.81886 35.49354 15 ft 16 kts 215°
2026-05-08 14:32 33.81789 35.49271 13 ft 18 kts 214°
2026-05-08 14:32 33.81681 35.49178 14 ft 20 kts 216°
2026-05-08 14:32 33.81557 35.49075 13 ft 23 kts 216°
2026-05-08 14:33 33.81422 35.48960 10 ft 25 kts 216°
2026-05-08 14:33 33.81281 35.48842 12 ft 24 kts 216°
2026-05-08 14:33 33.81212 35.48706 12 ft 19 kts 293°
2026-05-08 14:33 33.81301 35.48641 14 ft 14 kts 346°
2026-05-08 14:34 33.81537 35.48576 14 ft 68 kts 346°
2026-05-08 14:34 33.82192 35.48396 13 ft 121 kts 346°
2026-05-08 14:34 33.83136 35.48141 122 ft 152 kts 347°
2026-05-08 14:34 33.84157 35.47814 733 ft 152 kts 343°
2026-05-08 14:35 33.85110 35.47240 1307 ft 162 kts 319°
2026-05-08 14:35 33.85622 35.45920 1639 ft 193 kts 277°
2026-05-08 14:35 33.85621 35.44201 1923 ft 219 kts 272°
2026-05-08 14:35 33.85571 35.42260 2329 ft 244 kts 270°
2026-05-08 14:36 33.85503 35.40128 2875 ft 263 kts 270°
2026-05-08 14:36 33.85433 35.37892 3738 ft 270 kts 270°
2026-05-08 14:36 33.85363 35.35626 4722 ft 271 kts 269°
2026-05-08 14:36 33.85294 35.33360 5703 ft 272 kts 266°
2026-05-08 14:37 33.85227 35.31080 6635 ft 274 kts 265°
2026-05-08 14:37 33.85163 35.28773 7474 ft 278 kts 266°
2026-05-08 14:37 33.85103 35.26426 8308 ft 283 kts 266°
2026-05-08 14:37 33.85045 35.24074 9140 ft 287 kts 267°
2026-05-08 14:38 33.84984 35.21657 9961 ft 291 kts 266°
2026-05-08 14:38 33.84919 35.19162 10377 ft 310 kts 267°
2026-05-08 14:38 33.84848 35.16478 10590 ft 333 kts 267°
2026-05-08 14:38 33.84776 35.13643 11091 ft 343 kts 268°
2026-05-08 14:39 33.84705 35.10765 11792 ft 345 kts 268°
2026-05-08 14:39 33.84633 35.07864 12508 ft 349 kts 268°
2026-05-08 14:39 33.84556 35.04933 13220 ft 351 kts 268°
2026-05-08 14:39 33.84474 35.01990 13949 ft 353 kts 269°
2026-05-08 14:40 33.84390 34.99031 14575 ft 356 kts 269°
2026-05-08 14:40 33.84335 34.97051 14968 ft 358 kts 269°
2026-05-08 14:40 33.84251 34.94003 15568 ft 361 kts 269°
2026-05-08 14:40 33.84166 34.90972 16156 ft 364 kts 269°
2026-05-08 14:41 33.84080 34.87957 16740 ft 367 kts 269°
2026-05-08 14:41 33.83990 34.84880 17333 ft 370 kts 269°
2026-05-08 14:41 33.83896 34.81776 17941 ft 373 kts 269°
2026-05-08 14:41 33.83804 34.78650 18520 ft 375 kts 269°
2026-05-08 14:42 33.83714 34.75495 19070 ft 378 kts 270°
2026-05-08 14:42 33.83623 34.72329 19623 ft 380 kts 270°
2026-05-08 14:42 33.83527 34.69144 20182 ft 382 kts 270°
2026-05-08 14:42 33.83430 34.65942 20735 ft 384 kts 270°
2026-05-08 14:43 33.83331 34.62718 21284 ft 386 kts 270°
2026-05-08 14:43 33.83231 34.59482 21802 ft 388 kts 270°
2026-05-08 14:43 33.83132 34.56231 22306 ft 390 kts 271°
2026-05-08 14:43 33.83037 34.52961 22806 ft 392 kts 271°
2026-05-08 14:44 33.82908 34.49691 23278 ft 396 kts 266°
2026-05-08 14:44 33.82186 34.46450 23733 ft 406 kts 250°
2026-05-08 14:44 33.80831 34.43435 24119 ft 412 kts 245°
2026-05-08 14:44 33.79396 34.40442 24508 ft 415 kts 245°
2026-05-08 14:45 33.77932 34.37440 24886 ft 417 kts 245°
2026-05-08 14:45 33.76453 34.34428 25264 ft 420 kts 245°
2026-05-08 14:45 33.74964 34.31397 25629 ft 422 kts 245°
2026-05-08 14:45 33.73471 34.28346 25992 ft 425 kts 245°
2026-05-08 14:46 33.71974 34.25272 26354 ft 427 kts 245°
2026-05-08 14:46 33.70495 34.22225 26715 ft 429 kts 246°
2026-05-08 14:46 33.68967 34.19073 27051 ft 432 kts 246°
2026-05-08 14:46 33.67467 34.15986 27408 ft 435 kts 246°
2026-05-08 14:47 33.65934 34.12838 27772 ft 438 kts 246°
2026-05-08 14:47 33.64392 34.09681 28150 ft 440 kts 246°
2026-05-08 14:47 33.62839 34.06503 28501 ft 442 kts 246°
2026-05-08 14:47 33.61282 34.03312 28856 ft 445 kts 246°
2026-05-08 14:48 33.59716 34.00103 29210 ft 447 kts 246°
2026-05-08 14:48 33.58140 33.96878 29564 ft 450 kts 246°
2026-05-08 14:48 33.56551 33.93636 29940 ft 451 kts 246°
2026-05-08 14:48 33.54961 33.90406 30413 ft 449 kts 246°
2026-05-08 14:49 33.53378 33.87194 30879 ft 447 kts 247°
2026-05-08 14:49 33.51800 33.83992 31349 ft 445 kts 247°
2026-05-08 14:49 33.50232 33.80810 31830 ft 443 kts 247°
2026-05-08 14:49 33.48669 33.77638 32320 ft 441 kts 248°
2026-05-08 14:50 33.47116 33.74488 32807 ft 438 kts 248°
2026-05-08 14:50 33.45565 33.71342 33032 ft 438 kts 248°
2026-05-08 14:50 33.42474 33.65090 33075 ft 435 kts 248°
2026-05-08 14:51 33.39396 33.58860 33080 ft 435 kts 248°
2026-05-08 14:51 33.36318 33.52632 33076 ft 435 kts 248°
2026-05-08 14:52 33.31687 33.43301 33080 ft 435 kts 248°
2026-05-08 14:53 33.28590 33.37084 33078 ft 435 kts 248°
2026-05-08 14:53 33.25490 33.30865 33081 ft 436 kts 248°
2026-05-08 14:54 33.22380 33.24640 33081 ft 436 kts 248°
2026-05-08 14:54 33.19294 33.18470 33081 ft 436 kts 248°
2026-05-08 14:55 33.16184 33.12260 33082 ft 436 kts 247°
2026-05-08 14:55 33.13050 33.06011 33082 ft 436 kts 247°
2026-05-08 14:56 33.09951 32.99845 33081 ft 436 kts 247°
2026-05-08 14:56 33.06822 32.93639 33087 ft 436 kts 247°
2026-05-08 14:57 33.03698 32.87437 33083 ft 436 kts 247°
2026-05-08 14:57 33.00569 32.81247 33081 ft 436 kts 247°
2026-05-08 14:58 32.97431 32.75054 33092 ft 436 kts 247°
2026-05-08 14:58 32.94293 32.68871 33093 ft 436 kts 247°
2026-05-08 14:59 32.91165 32.62690 33090 ft 436 kts 247°
2026-05-08 14:59 32.86461 32.53429 33084 ft 436 kts 246°
2026-05-08 15:00 32.83333 32.47302 33101 ft 435 kts 246°
2026-05-08 15:00 32.80189 32.41149 33099 ft 436 kts 246°
2026-05-08 15:01 32.77041 32.35001 33097 ft 436 kts 246°
2026-05-08 15:01 32.73891 32.28871 33103 ft 434 kts 246°
2026-05-08 15:02 32.70750 32.22758 33105 ft 433 kts 246°
2026-05-08 15:02 32.67613 32.16663 33109 ft 432 kts 246°
2026-05-08 15:03 32.64475 32.10570 33105 ft 432 kts 246°
2026-05-08 15:03 32.61248 32.04547 33108 ft 433 kts 243°
2026-05-08 15:04 32.57801 31.98691 33108 ft 433 kts 242°
2026-05-08 15:04 32.54319 31.92891 33106 ft 431 kts 242°
2026-05-08 15:05 32.50885 31.87078 33102 ft 430 kts 243°
2026-05-08 15:05 32.47477 31.81251 33109 ft 430 kts 243°
2026-05-08 15:06 32.44077 31.75434 33110 ft 428 kts 242°
2026-05-08 15:06 32.40801 31.69630 33119 ft 421 kts 252°
2026-05-08 15:07 32.37860 31.63625 33111 ft 428 kts 241°
2026-05-08 15:07 32.34143 31.58056 33111 ft 432 kts 238°
2026-05-08 15:08 32.31064 31.53418 33111 ft 430 kts 240°
2026-05-08 15:08 32.27012 31.46725 33111 ft 427 kts 242°
2026-05-08 15:09 32.23656 31.40940 33119 ft 427 kts 242°
2026-05-08 15:09 32.20275 31.35167 33117 ft 427 kts 242°
2026-05-08 15:10 32.16861 31.29415 33117 ft 428 kts 242°
2026-05-08 15:10 32.13434 31.23676 33116 ft 428 kts 241°
2026-05-08 15:11 32.10002 31.17943 33114 ft 427 kts 241°
2026-05-08 15:11 32.06382 31.12353 33116 ft 437 kts 231°
2026-05-08 15:12 32.03971 31.10103 33122 ft 448 kts 218°
2026-05-08 15:12 32.01114 31.08503 33121 ft 461 kts 205°
2026-05-08 15:12 31.97988 31.07702 33120 ft 473 kts 191°
2026-05-08 15:12 31.94669 31.07746 33122 ft 483 kts 180°
2026-05-08 15:13 31.87962 31.08486 33117 ft 484 kts 180°
2026-05-08 15:13 31.81256 31.09219 33120 ft 484 kts 180°
2026-05-08 15:14 31.74554 31.09934 33122 ft 484 kts 180°
2026-05-08 15:14 31.67849 31.10650 33123 ft 484 kts 180°
2026-05-08 15:15 31.61139 31.11372 33120 ft 483 kts 180°
2026-05-08 15:15 31.54442 31.12088 33111 ft 483 kts 180°
2026-05-08 15:16 31.47750 31.13023 33112 ft 486 kts 176°
2026-05-08 15:16 31.41079 31.14355 33113 ft 487 kts 174°
2026-05-08 15:17 31.34406 31.15735 33113 ft 486 kts 175°
2026-05-08 15:17 31.31062 31.16383 33007 ft 485 kts 175°
2026-05-08 15:17 31.27771 31.17000 32272 ft 485 kts 175°
2026-05-08 15:18 31.24427 31.17615 31479 ft 488 kts 175°
2026-05-08 15:18 31.21070 31.18229 30693 ft 489 kts 175°
2026-05-08 15:18 31.17713 31.18844 30077 ft 487 kts 175°
2026-05-08 15:18 31.14384 31.19459 29435 ft 482 kts 174°
2026-05-08 15:19 31.11091 31.20068 28843 ft 477 kts 174°
2026-05-08 15:19 31.07826 31.20674 28262 ft 472 kts 174°
2026-05-08 15:19 31.04595 31.21276 27673 ft 468 kts 174°
2026-05-08 15:19 31.01397 31.21872 27098 ft 463 kts 174°
2026-05-08 15:20 30.98228 31.22463 26534 ft 459 kts 174°
2026-05-08 15:20 30.95088 31.23049 25977 ft 455 kts 174°
2026-05-08 15:20 30.91969 31.23630 25429 ft 451 kts 174°
2026-05-08 15:20 30.88878 31.24205 24883 ft 448 kts 174°
2026-05-08 15:21 30.85809 31.24772 24356 ft 444 kts 174°
2026-05-08 15:21 30.82768 31.25332 23841 ft 441 kts 174°
2026-05-08 15:21 30.79744 31.25891 23285 ft 438 kts 173°
2026-05-08 15:21 30.76747 31.26445 22721 ft 435 kts 173°
2026-05-08 15:22 30.73774 31.26991 22181 ft 431 kts 173°
2026-05-08 15:22 30.70821 31.27535 21665 ft 428 kts 173°
2026-05-08 15:22 30.67895 31.28076 21166 ft 425 kts 173°
2026-05-08 15:22 30.64981 31.28617 20657 ft 422 kts 173°
2026-05-08 15:23 30.62093 31.29152 20133 ft 419 kts 172°
2026-05-08 15:23 30.59228 31.29681 19634 ft 416 kts 172°
2026-05-08 15:23 30.57340 31.30029 19308 ft 414 kts 172°
2026-05-08 15:23 30.53548 31.30709 18639 ft 409 kts 175°
2026-05-08 15:24 30.50778 31.30591 18147 ft 402 kts 194°
2026-05-08 15:24 30.48153 31.29575 17578 ft 396 kts 204°
2026-05-08 15:24 30.46435 31.28760 17190 ft 394 kts 205°
2026-05-08 15:24 30.43909 31.27542 16637 ft 391 kts 205°
2026-05-08 15:25 30.40601 31.25940 15932 ft 387 kts 205°
2026-05-08 15:25 30.38933 31.25124 15602 ft 385 kts 205°
2026-05-08 15:25 30.36516 31.23937 15104 ft 381 kts 205°
2026-05-08 15:25 30.34046 31.22720 14595 ft 379 kts 205°
2026-05-08 15:26 30.31665 31.21545 14106 ft 376 kts 205°
2026-05-08 15:26 30.29258 31.20362 13559 ft 374 kts 205°
2026-05-08 15:26 30.26881 31.19191 13032 ft 371 kts 205°
2026-05-08 15:26 30.24529 31.18028 12234 ft 364 kts 205°
2026-05-08 15:27 30.22216 31.16873 11334 ft 360 kts 205°
2026-05-08 15:27 30.19930 31.15712 10439 ft 356 kts 209°
2026-05-08 15:27 30.17999 31.14080 10177 ft 331 kts 224°
2026-05-08 15:27 30.16335 31.12363 9948 ft 312 kts 224°
2026-05-08 15:28 30.14742 31.10698 9416 ft 306 kts 225°
2026-05-08 15:28 30.13181 31.09054 8864 ft 301 kts 225°
2026-05-08 15:28 30.11626 31.07416 8426 ft 302 kts 225°
2026-05-08 15:28 30.10080 31.05793 8121 ft 300 kts 226°
2026-05-08 15:29 30.08526 31.04180 7779 ft 300 kts 224°
2026-05-08 15:29 30.06996 31.02578 7290 ft 295 kts 226°
2026-05-08 15:29 30.05482 31.00988 6712 ft 293 kts 225°
2026-05-08 15:29 30.03971 30.99394 5938 ft 297 kts 221°
2026-05-08 15:30 30.02136 30.98261 5117 ft 305 kts 194°
2026-05-08 15:30 30.00025 30.98179 4698 ft 304 kts 166°
2026-05-08 15:30 29.98160 30.99142 4554 ft 288 kts 138°
2026-05-08 15:30 29.96924 31.00855 4366 ft 272 kts 110°
2026-05-08 15:31 29.96488 31.02904 3849 ft 260 kts 88°
2026-05-08 15:31 29.96441 31.04980 3265 ft 258 kts 86°
2026-05-08 15:31 29.96443 31.07059 2860 ft 260 kts 84°
2026-05-08 15:31 29.96434 31.09131 2638 ft 258 kts 85°
2026-05-08 15:32 29.96431 31.11192 2590 ft 256 kts 85°
2026-05-08 15:32 29.96449 31.13250 2593 ft 257 kts 84°
2026-05-08 15:32 29.96459 31.15317 2596 ft 259 kts 85°
2026-05-08 15:32 29.96453 31.17391 2594 ft 257 kts 85°
2026-05-08 15:33 29.96458 31.19463 2589 ft 260 kts 85°
2026-05-08 15:33 29.96668 31.21498 2593 ft 254 kts 67°
2026-05-08 15:33 29.97481 31.23243 2592 ft 245 kts 48°
2026-05-08 15:33 29.98580 31.24710 2601 ft 247 kts 46°
2026-05-08 15:34 29.99705 31.26192 2587 ft 241 kts 45°
2026-05-08 15:34 30.00748 31.27576 2587 ft 221 kts 46°
2026-05-08 15:34 30.01707 31.28848 2589 ft 206 kts 46°
2026-05-08 15:34 30.02607 31.30043 2482 ft 189 kts 45°
2026-05-08 15:35 30.03438 31.31147 2310 ft 174 kts 45°
2026-05-08 15:35 30.04195 31.32152 2092 ft 158 kts 45°
2026-05-08 15:35 30.04871 31.33050 1901 ft 140 kts 47°
2026-05-08 15:35 30.05497 31.33879 1717 ft 135 kts 46°
2026-05-08 15:36 30.06104 31.34685 1545 ft 134 kts 45°
2026-05-08 15:36 30.06708 31.35487 1393 ft 129 kts 44°
2026-05-08 15:36 30.07292 31.36264 1212 ft 128 kts 45°
2026-05-08 15:36 30.07871 31.37033 1053 ft 126 kts 43°
2026-05-08 15:37 30.08446 31.37797 885 ft 125 kts 44°
2026-05-08 15:37 30.09027 31.38573 730 ft 127 kts 47°
2026-05-08 15:37 30.09604 31.39347 539 ft 126 kts 45°
2026-05-08 15:37 30.10173 31.40116 398 ft 124 kts 45°
2026-05-08 15:38 30.10715 31.40834 374 ft 109 kts 47°
2026-05-08 15:38 30.11103 31.41327 375 ft 46 kts 49°
2026-05-08 15:38 30.11171 31.41416 373 ft 8 kts 51°
2026-05-08 15:38 30.11214 31.41474 373 ft 11 kts 43°
2026-05-08 15:39 30.11275 31.41528 373 ft 12 kts 33°
2026-05-08 15:39 30.11357 31.41576 374 ft 14 kts 25°
2026-05-08 15:39 30.11454 31.41614 375 ft 16 kts 18°
2026-05-08 15:39 30.11559 31.41601 375 ft 17 kts 304°
2026-05-08 15:40 30.11535 31.41510 375 ft 12 kts 224°
2026-05-08 15:40 30.11475 31.41433 375 ft 14 kts 230°
2026-05-08 15:40 30.11412 31.41343 375 ft 12 kts 235°
2026-05-08 15:40 30.11423 31.41249 375 ft 13 kts 291°
2026-05-08 15:41 30.11388 31.41155 375 ft 12 kts 230°
2026-05-08 15:41 30.11375 31.41097 375 ft 5 kts 317°
2026-05-08 15:41 30.11400 31.41071 375 ft 2 kts 318°
2026-05-08 15:41 30.11413 31.41058 375 ft 0 kts 319°
2026-05-08 15:42 30.11414 31.41057 375 ft 0 kts 319°
2026-05-08 15:48 30.11413 31.41057 375 ft 0 kts 319°
2026-05-08 15:57 30.11413 31.41058 375 ft 0 kts 319°